Tracking 29892 objects as of 21-Nov-2024
HD Live streaming from Space Station
objects crossing your sky now

STARLINK-30752

Track STARLINK-30752 now!
10-day predictions
STARLINK-30752 is classified as:


NORAD ID: 58171
Int'l Code: 2023-166X
Perigee: 481.4 km
Apogee: 483.3 km
Inclination: 53.2 °
Period: 94.1 minutes
Semi major axis: 6853 km
RCS: Unknown
Launch date: October 29, 2023
Source: United States (US)
Launch site: AIR FORCE WESTERN TEST RANGE (AFWTR)
Your satellite tracking list
Your tracking list is empty




NASA's NSSDC Master Catalog

Two Line Element Set (TLE):
1 58171U 23166X   24325.84405830  .00003184  00000-0  11957-3 0  9990
2 58171  53.1589 260.4109 0001405 104.0144 256.1013 15.30199637 60649
Source of the keplerian elements: AFSPC